Погода в Песках

Украина / Полтавская область     49°18′10″N   33°40′19″E
темп.,
°C
ветер,
м/с
пор.,
м/с
влажн.,
%
обл.,
%
осадки,
мм/ч
давл.,
гПа
погр.,
м
14 мая, пт
пт1400:00+11вюв3466100 0.0 101262
03:00+11в4679100 0.0 1011104
06:00+11вюв3688100 0.1 1010129
09:00+17юв467678 0.8 1009485
12:00+22ю5759100 0.0 10081298
15:00+23ю6746100 0.0 10081625
18:00+21ю5859100 0.0 1008493
21:00+16ю47741 0.0 1009101
15 мая, сб
сб1500:00+13ююз358413 0.0 101075
03:00+11ю358897 0.0 101080
06:00+11ю35890 0.0 1011110
09:00+18юз46652 0.0 1012657
12:00+22юз585180 0.0 10121848
15:00+23зюз574546 0.0 10122330
18:00+20зсз2261100 0.0 101217
21:00+18св1161100 0.0 101211
16 мая, вс
вс1600:00+15в22720 0.0 101213
03:00+13ююз33790 0.0 101325
06:00+14зюз11800 0.0 101310
09:00+20в116194 0.0 1013332
12:00+23всв2346100 0.0 10121369
15:00+25в3443100 0.0 10112140
18:00+24всв355384 0.0 1010426
21:00+19всв467237 0.0 100979
17 мая, пн
пн1700:00+17св497797 0.0 1008144
03:00+18св41074100 0.0 1007249
06:00+16всв2593100 2.2 1006123
09:00+20всв2373100 2.2 1005389
12:00+24в1260100 0.0 10041120
15:00+25ююз555922 0.1 10041378
18:00+20сз578188 0.6 1004534
21:00+16сз34930 1.0 100774
18 мая, вт
вт1800:00+15зсз33950 0.0 100757
03:00+14зсз2396100 0.0 100850
06:00+14ссз129574 0.0 100953
09:00+19юз00725 0.0 1009540
12:00+22ююз335932 0.4 10101311
15:00+23зюз23544 1.5 10091427
18:00+23ссз2256100 0.1 1008711
21:00+18всв337322 0.1 100945